TRA76E EHAM-LOWS

Flight info

Callsign TRA76E
Flight time 1h 9m
Altitude 35000
Route EDUPO Z739 MISGO DCT TIVUN DCT ESAMA DCT OSBIT DCT BOREP DCT ARMUT/N0430F310 T703 ARBAX/N0426F300 T108 OSTES T700 BADIT BADIT2R
Aircraft B738/M-SDE2E3FGHIRWXY/LB1

Departure

Time 2026-05-04 13:03
Airport Amsterdam Airport Schiphol (EHAM)

Arrival

Time 2026-05-04 14:13
Airport Salzburg Airport (LOWS)
Time Latitude Longitude Altitude Speed Heading
2026-05-04 12:36 52.30429 4.76603 -2 ft 0 kts 58°
2026-05-04 12:55 52.30418 4.76572 -2 ft 4 kts 76°
2026-05-04 12:56 52.30420 4.76535 -2 ft 4 kts 131°
2026-05-04 12:56 52.30423 4.76529 -2 ft 0 kts 135°
2026-05-04 12:59 52.30412 4.76538 -2 ft 4 kts 153°
2026-05-04 12:59 52.30367 4.76582 -2 ft 11 kts 141°
2026-05-04 12:59 52.30334 4.76708 -2 ft 13 kts 123°
2026-05-04 13:00 52.30324 4.76855 -2 ft 16 kts 59°
2026-05-04 13:00 52.30387 4.77017 -2 ft 18 kts 58°
2026-05-04 13:00 52.30455 4.77197 -2 ft 19 kts 58°
2026-05-04 13:00 52.30528 4.77385 -2 ft 17 kts 57°
2026-05-04 13:01 52.30564 4.77491 -2 ft 8 kts 80°
2026-05-04 13:01 52.30539 4.77564 -2 ft 8 kts 148°
2026-05-04 13:01 52.30493 4.77606 -2 ft 7 kts 152°
2026-05-04 13:01 52.30446 4.77638 -2 ft 8 kts 172°
2026-05-04 13:02 52.30395 4.77587 -3 ft 11 kts 234°
2026-05-04 13:02 52.30356 4.77481 -3 ft 15 kts 237°
2026-05-04 13:02 52.30181 4.77031 -4 ft 81 kts 238°
2026-05-04 13:02 52.29774 4.75969 -4 ft 139 kts 238°
2026-05-04 13:03 52.29206 4.74445 246 ft 165 kts 239°
2026-05-04 13:03 52.28569 4.72816 819 ft 177 kts 239°
2026-05-04 13:03 52.27917 4.71172 1707 ft 168 kts 237°
2026-05-04 13:03 52.27472 4.70109 2109 ft 176 kts 234°
2026-05-04 13:04 52.26617 4.68453 2356 ft 205 kts 220°
2026-05-04 13:04 52.25293 4.67393 2637 ft 226 kts 187°
2026-05-04 13:04 52.23735 4.67730 3248 ft 230 kts 159°
2026-05-04 13:04 52.22390 4.69263 3639 ft 245 kts 128°
2026-05-04 13:05 52.21717 4.71771 4471 ft 239 kts 105°
2026-05-04 13:05 52.21256 4.74384 5247 ft 241 kts 110°
2026-05-04 13:05 52.20590 4.76874 5915 ft 242 kts 118°
2026-05-04 13:05 52.19761 4.79442 5960 ft 271 kts 119°
2026-05-04 13:06 52.18851 4.82162 6068 ft 273 kts 120°
2026-05-04 13:06 52.17903 4.84920 6421 ft 283 kts 117°
2026-05-04 13:06 52.17441 4.87979 7287 ft 280 kts 87°
2026-05-04 13:06 52.17825 4.91041 8017 ft 283 kts 74°
2026-05-04 13:07 52.18411 4.94138 8631 ft 290 kts 72°
2026-05-04 13:07 52.19028 4.97268 9396 ft 290 kts 72°
2026-05-04 13:07 52.19648 5.00429 10068 ft 294 kts 73°
2026-05-04 13:07 52.20278 5.03692 10355 ft 313 kts 73°
2026-05-04 13:08 52.20945 5.07187 10522 ft 333 kts 73°
2026-05-04 13:08 52.21646 5.10893 10776 ft 348 kts 73°
2026-05-04 13:08 52.22363 5.14707 11327 ft 355 kts 73°
2026-05-04 13:08 52.23086 5.18577 11949 ft 358 kts 73°
2026-05-04 13:09 52.23735 5.22534 12589 ft 363 kts 83°
2026-05-04 13:09 52.23559 5.26638 13191 ft 366 kts 107°
2026-05-04 13:09 52.22507 5.30346 13834 ft 367 kts 126°
2026-05-04 13:09 52.21034 5.33753 14536 ft 369 kts 128°
2026-05-04 13:10 52.19510 5.37158 15240 ft 373 kts 128°
2026-05-04 13:10 52.17973 5.40594 15949 ft 377 kts 128°
2026-05-04 13:10 52.16431 5.44084 16624 ft 381 kts 127°
2026-05-04 13:10 52.14887 5.47604 17290 ft 382 kts 127°
2026-05-04 13:11 52.13345 5.51132 17931 ft 384 kts 127°
2026-05-04 13:11 52.11784 5.54703 18434 ft 389 kts 127°
2026-05-04 13:11 52.10206 5.58308 18921 ft 392 kts 127°
2026-05-04 13:11 52.08620 5.61927 19466 ft 394 kts 128°
2026-05-04 13:12 52.07026 5.65557 19995 ft 396 kts 128°
2026-05-04 13:12 52.05386 5.69164 20500 ft 398 kts 131°
2026-05-04 13:12 52.03587 5.72588 21009 ft 399 kts 134°
2026-05-04 13:12 52.01751 5.75916 21534 ft 401 kts 135°
2026-05-04 13:13 51.99892 5.79317 22041 ft 404 kts 134°
2026-05-04 13:13 51.98034 5.82768 22529 ft 407 kts 134°
2026-05-04 13:13 51.96173 5.86247 23016 ft 409 kts 134°
2026-05-04 13:13 51.94301 5.89738 23439 ft 413 kts 135°
2026-05-04 13:14 51.92406 5.93263 23806 ft 416 kts 135°
2026-05-04 13:14 51.90497 5.96814 24214 ft 418 kts 135°
2026-05-04 13:14 51.88585 6.00366 24624 ft 419 kts 135°
2026-05-04 13:14 51.86664 6.03925 25044 ft 420 kts 136°
2026-05-04 13:15 51.84731 6.07497 25436 ft 423 kts 136°
2026-05-04 13:15 51.82780 6.11074 25828 ft 425 kts 136°
2026-05-04 13:15 51.80817 6.14662 26208 ft 427 kts 136°
2026-05-04 13:15 51.78842 6.18267 26571 ft 429 kts 136°
2026-05-04 13:16 51.76856 6.21890 26945 ft 431 kts 136°
2026-05-04 13:16 51.74892 6.25476 27289 ft 433 kts 136°
2026-05-04 13:16 51.72890 6.29130 27608 ft 435 kts 136°
2026-05-04 13:16 51.70878 6.32801 27859 ft 438 kts 137°
2026-05-04 13:17 51.68847 6.36501 28077 ft 442 kts 137°
2026-05-04 13:17 51.66807 6.40216 28400 ft 444 kts 137°
2026-05-04 13:17 51.64761 6.43932 28738 ft 445 kts 137°
2026-05-04 13:17 51.62699 6.47671 29049 ft 446 kts 137°
2026-05-04 13:18 51.60643 6.51394 29479 ft 445 kts 137°
2026-05-04 13:18 51.58592 6.55102 29850 ft 445 kts 137°
2026-05-04 13:18 51.56537 6.58811 30165 ft 446 kts 137°
2026-05-04 13:18 51.54478 6.62524 30487 ft 445 kts 137°
2026-05-04 13:19 51.52422 6.66227 30845 ft 444 kts 138°
2026-05-04 13:19 51.50369 6.69921 31203 ft 442 kts 138°
2026-05-04 13:19 51.48321 6.73600 31513 ft 442 kts 138°
2026-05-04 13:19 51.46267 6.77282 31727 ft 444 kts 138°
2026-05-04 13:20 51.44203 6.80977 31960 ft 446 kts 138°
2026-05-04 13:20 51.42137 6.84673 32313 ft 444 kts 139°
2026-05-04 13:20 51.40105 6.88391 32682 ft 445 kts 135°
2026-05-04 13:20 51.38272 6.92399 32992 ft 448 kts 131°
2026-05-04 13:21 51.36518 6.96531 33222 ft 450 kts 130°
2026-05-04 13:21 51.34792 7.00694 33658 ft 447 kts 130°
2026-05-04 13:21 51.33079 7.04825 34010 ft 445 kts 130°
2026-05-04 13:21 51.31354 7.08941 34205 ft 446 kts 130°
2026-05-04 13:22 51.29611 7.13051 34378 ft 447 kts 131°
2026-05-04 13:22 51.27860 7.17150 34594 ft 447 kts 130°
2026-05-04 13:22 51.26098 7.21249 34744 ft 449 kts 130°
2026-05-04 13:22 51.24326 7.25357 34903 ft 450 kts 130°
2026-05-04 13:23 51.22547 7.29474 34972 ft 452 kts 130°
2026-05-04 13:23 51.18966 7.37746 34969 ft 452 kts 130°
2026-05-04 13:24 51.15419 7.45928 34972 ft 446 kts 131°
2026-05-04 13:24 51.11894 7.54023 34986 ft 445 kts 131°
2026-05-04 13:25 51.06627 7.66069 34978 ft 444 kts 130°
2026-05-04 13:25 51.03302 7.74394 34989 ft 449 kts 125°
2026-05-04 13:26 51.00298 7.83116 34988 ft 451 kts 124°
2026-05-04 13:26 50.97306 7.91861 34991 ft 451 kts 124°
2026-05-04 13:27 50.94267 8.00569 34983 ft 452 kts 124°
2026-05-04 13:27 50.91188 8.09271 34981 ft 453 kts 124°
2026-05-04 13:28 50.88085 8.17990 34992 ft 454 kts 125°
2026-05-04 13:28 50.84974 8.26704 34991 ft 456 kts 125°
2026-05-04 13:29 50.81843 8.35446 34994 ft 457 kts 125°
2026-05-04 13:29 50.78707 8.44177 34979 ft 458 kts 125°
2026-05-04 13:30 50.75555 8.52920 34971 ft 458 kts 125°
2026-05-04 13:30 50.72415 8.61602 34978 ft 458 kts 125°
2026-05-04 13:31 50.69254 8.70311 34979 ft 458 kts 125°
2026-05-04 13:31 50.66077 8.79033 34972 ft 459 kts 125°
2026-05-04 13:32 50.62898 8.87732 34979 ft 459 kts 125°
2026-05-04 13:32 50.59704 8.96443 34980 ft 459 kts 125°
2026-05-04 13:33 50.56504 9.05141 34974 ft 459 kts 125°
2026-05-04 13:33 50.53299 9.13824 34984 ft 459 kts 125°
2026-05-04 13:34 50.50090 9.22486 34970 ft 458 kts 125°
2026-05-04 13:34 50.46901 9.31068 34947 ft 457 kts 125°
2026-05-04 13:35 50.42090 9.43961 34967 ft 456 kts 125°
2026-05-04 13:36 50.38879 9.52528 34969 ft 455 kts 125°
2026-05-04 13:36 50.35671 9.61062 34977 ft 454 kts 126°
2026-05-04 13:37 50.32483 9.69513 34972 ft 453 kts 126°
2026-05-04 13:37 50.29272 9.77995 34968 ft 453 kts 125°
2026-05-04 13:38 50.26060 9.86453 34979 ft 453 kts 125°
2026-05-04 13:38 50.22834 9.94922 34974 ft 454 kts 125°
2026-05-04 13:39 50.19597 10.03391 34973 ft 455 kts 125°
2026-05-04 13:39 50.16350 10.11861 34990 ft 455 kts 126°
2026-05-04 13:40 50.13091 10.20333 34980 ft 456 kts 125°
2026-05-04 13:40 50.09818 10.28814 34972 ft 457 kts 125°
2026-05-04 13:41 50.06535 10.37293 34971 ft 458 kts 125°
2026-05-04 13:41 50.03084 10.45498 34978 ft 452 kts 135°
2026-05-04 13:42 49.96804 10.56342 34969 ft 450 kts 137°
2026-05-04 13:42 49.92588 10.63535 34973 ft 450 kts 136°
2026-05-04 13:43 49.88400 10.70774 34976 ft 450 kts 136°
2026-05-04 13:43 49.84228 10.78015 34982 ft 450 kts 136°
2026-05-04 13:44 49.80054 10.85246 34974 ft 450 kts 136°
2026-05-04 13:44 49.75881 10.92456 34969 ft 450 kts 136°
2026-05-04 13:45 49.71705 10.99646 34982 ft 450 kts 136°
2026-05-04 13:45 49.67545 11.06791 34950 ft 443 kts 136°
2026-05-04 13:46 49.65494 11.10309 34606 ft 437 kts 136°
2026-05-04 13:46 49.63473 11.13773 34280 ft 431 kts 136°
2026-05-04 13:46 49.61498 11.17149 33894 ft 428 kts 136°
2026-05-04 13:46 49.59519 11.20526 33470 ft 425 kts 136°
2026-05-04 13:47 49.57537 11.23903 33080 ft 421 kts 136°
2026-05-04 13:47 49.55581 11.27232 32675 ft 418 kts 136°
2026-05-04 13:47 49.53641 11.30530 32301 ft 413 kts 136°
2026-05-04 13:47 49.51721 11.33790 31930 ft 410 kts 136°
2026-05-04 13:48 49.49813 11.37025 31551 ft 407 kts 136°
2026-05-04 13:48 49.47913 11.40241 31189 ft 404 kts 136°
2026-05-04 13:48 49.46031 11.43424 30875 ft 399 kts 136°
2026-05-04 13:48 49.44179 11.46557 30597 ft 394 kts 137°
2026-05-04 13:49 49.42335 11.49669 30254 ft 390 kts 137°
2026-05-04 13:49 49.40510 11.52744 30018 ft 391 kts 137°
2026-05-04 13:49 49.38659 11.55852 29735 ft 396 kts 136°
2026-05-04 13:49 49.36794 11.58982 29470 ft 398 kts 136°
2026-05-04 13:50 49.34953 11.62072 29186 ft 396 kts 136°
2026-05-04 13:50 49.33103 11.65177 28893 ft 394 kts 136°
2026-05-04 13:50 49.31264 11.68263 28621 ft 392 kts 136°
2026-05-04 13:50 49.29428 11.71345 28350 ft 390 kts 136°
2026-05-04 13:51 49.27602 11.74401 28079 ft 389 kts 136°
2026-05-04 13:51 49.25779 11.77446 27817 ft 388 kts 136°
2026-05-04 13:51 49.23956 11.80482 27552 ft 387 kts 136°
2026-05-04 13:51 49.22140 11.83499 27289 ft 386 kts 136°
2026-05-04 13:52 49.19109 11.88538 26835 ft 382 kts 136°
2026-05-04 13:52 49.17344 11.91477 26499 ft 378 kts 136°
2026-05-04 13:52 49.15573 11.94412 26145 ft 376 kts 136°
2026-05-04 13:53 49.13803 11.97340 25783 ft 374 kts 136°
2026-05-04 13:53 49.12041 12.00258 25403 ft 372 kts 136°
2026-05-04 13:53 49.10289 12.03159 25051 ft 370 kts 136°
2026-05-04 13:54 49.06812 12.08888 24356 ft 366 kts 136°
2026-05-04 13:54 49.05083 12.11733 24008 ft 365 kts 136°
2026-05-04 13:54 49.01646 12.17386 23254 ft 363 kts 135°
2026-05-04 13:55 48.99936 12.20207 22853 ft 361 kts 136°
2026-05-04 13:55 48.96546 12.25763 22144 ft 356 kts 136°
2026-05-04 13:55 48.94864 12.28509 21783 ft 354 kts 136°
2026-05-04 13:56 48.93193 12.31236 21439 ft 351 kts 136°
2026-05-04 13:56 48.91532 12.33948 21090 ft 349 kts 136°
2026-05-04 13:56 48.88248 12.39309 20421 ft 345 kts 136°
2026-05-04 13:57 48.86616 12.41965 20081 ft 343 kts 136°
2026-05-04 13:57 48.84987 12.44613 19744 ft 342 kts 135°
2026-05-04 13:58 48.80171 12.52435 18752 ft 338 kts 136°
2026-05-04 13:58 48.76975 12.57611 18072 ft 336 kts 136°
2026-05-04 13:58 48.75382 12.60189 17734 ft 333 kts 136°
2026-05-04 13:59 48.73801 12.62744 17398 ft 331 kts 136°
2026-05-04 13:59 48.72229 12.65275 17062 ft 329 kts 137°
2026-05-04 13:59 48.68386 12.68556 16421 ft 314 kts 170°
2026-05-04 14:00 48.66244 12.69115 16112 ft 311 kts 173°
2026-05-04 14:00 48.61980 12.70137 15451 ft 309 kts 173°
2026-05-04 14:00 48.59865 12.70667 15135 ft 308 kts 173°
2026-05-04 14:01 48.57750 12.71144 14825 ft 306 kts 174°
2026-05-04 14:01 48.55648 12.71592 14509 ft 306 kts 174°
2026-05-04 14:01 48.51480 12.72475 13867 ft 304 kts 174°
2026-05-04 14:02 48.49359 12.72928 13521 ft 304 kts 173°
2026-05-04 14:02 48.47276 12.73376 13173 ft 303 kts 174°
2026-05-04 14:02 48.45227 12.73815 12832 ft 302 kts 174°
2026-05-04 14:02 48.43151 12.74261 12504 ft 301 kts 174°
2026-05-04 14:03 48.41081 12.74707 12177 ft 300 kts 174°
2026-05-04 14:03 48.39023 12.75189 11844 ft 300 kts 171°
2026-05-04 14:03 48.36989 12.75878 11513 ft 300 kts 168°
2026-05-04 14:03 48.34969 12.76633 11176 ft 299 kts 168°
2026-05-04 14:04 48.30942 12.78144 10503 ft 298 kts 168°
2026-05-04 14:04 48.28933 12.78882 10174 ft 297 kts 168°
2026-05-04 14:04 48.26926 12.79613 9928 ft 294 kts 169°
2026-05-04 14:05 48.23166 12.80976 9788 ft 265 kts 169°
2026-05-04 14:05 48.21385 12.81616 9383 ft 263 kts 169°
2026-05-04 14:05 48.19608 12.82253 8885 ft 263 kts 169°
2026-05-04 14:06 48.17828 12.82891 8428 ft 263 kts 168°
2026-05-04 14:06 48.16042 12.83535 8033 ft 263 kts 168°
2026-05-04 14:06 48.14287 12.84173 7720 ft 263 kts 168°
2026-05-04 14:06 48.12503 12.84825 7425 ft 266 kts 167°
2026-05-04 14:07 48.10704 12.85482 7117 ft 267 kts 167°
2026-05-04 14:07 48.08891 12.86141 6808 ft 268 kts 167°
2026-05-04 14:07 48.07080 12.86800 6513 ft 269 kts 167°
2026-05-04 14:07 48.05263 12.87462 6197 ft 270 kts 167°
2026-05-04 14:08 48.03466 12.88115 5853 ft 264 kts 166°
2026-05-04 14:08 48.01697 12.88757 5554 ft 258 kts 166°
2026-05-04 14:08 47.99976 12.89349 5268 ft 253 kts 170°
2026-05-04 14:08 47.98232 12.89519 4975 ft 249 kts 177°
2026-05-04 14:09 47.94925 12.90240 4444 ft 236 kts 145°
2026-05-04 14:09 47.93523 12.91455 4154 ft 232 kts 153°
2026-05-04 14:10 47.90617 12.93249 3578 ft 221 kts 154°
2026-05-04 14:10 47.89230 12.94123 3273 ft 210 kts 154°
2026-05-04 14:10 47.87946 12.94938 3012 ft 193 kts 153°
2026-05-04 14:10 47.86755 12.95694 2786 ft 179 kts 153°
2026-05-04 14:11 47.85636 12.96404 2559 ft 173 kts 153°
2026-05-04 14:11 47.83538 12.97730 2125 ft 156 kts 155°
2026-05-04 14:11 47.82545 12.98372 1877 ft 157 kts 153°
2026-05-04 14:12 47.81539 12.99007 1701 ft 158 kts 155°
2026-05-04 14:12 47.80504 12.99650 1516 ft 164 kts 152°
2026-05-04 14:12 47.78737 13.00770 1420 ft 62 kts 157°
2026-05-04 14:13 47.78559 13.00821 1422 ft 18 kts 234°
2026-05-04 14:13 47.78530 13.00697 1419 ft 10 kts 265°
2026-05-04 14:13 47.78564 13.00617 1419 ft 10 kts 332°
2026-05-04 14:13 47.78624 13.00575 1419 ft 9 kts 335°
2026-05-04 14:14 47.78683 13.00537 1419 ft 9 kts 337°
2026-05-04 14:14 47.78818 13.00453 1419 ft 13 kts 336°
2026-05-04 14:14 47.78903 13.00398 1419 ft 13 kts 335°
2026-05-04 14:15 47.78963 13.00171 1419 ft 13 kts 295°
2026-05-04 14:15 47.79108 13.00060 1419 ft 11 kts 335°
2026-05-04 14:16 47.79234 12.99985 1419 ft 7 kts
2026-05-04 14:16 47.79238 13.00045 1419 ft 6 kts 103°
2026-05-04 14:17 47.79232 13.00085 1419 ft 0 kts 102°